Location: Newark
(44.9333°N, 0.5667°E)
Time: 01:31:01
(UTC+00:00)

N. Korean satellite - Pass Details

Date: 14 December 2019
Orbit: 454 x 507 km, 97.2° (Epoch: 23 January)

Event Time Altitude Azimuth Distance (km) Brightness Sun altitude
Rises 04:52:36 0° 30° (NNE) 2,529 10.5 -26.4°
Reaches altitude 10° 04:55:22 10° 54° (NE) 1,633 9.8 -26.0°
Maximum altitude 04:57:29 15° 92° (E) 1,334 9.7 -25.6°
Drops below altitude 10° 04:59:34 10° 129° (SE) 1,609 10.0 -25.2°
Sets 05:02:16 0° 153° (SSE) 2,469 10.6 -24.7°
